Location: Easthampton
(42.2676°N, 72.6690°W)
Time: 15:14:59
(UTC+00:00)

Gurwin Techsat 1B - Pass Details

Date: 03 April 2023
Orbit: 811 x 813 km, 98.9° (Epoch: 02 June)

Event Time Altitude Azimuth Distance (km) Brightness Sun altitude
Rises 06:20:34 0° 34° (NE) 3,346 12.7 -38.6°
Reaches altitude 10° 06:24:13 10° 60° (ENE) 2,408 11.6 -38.3°
Enters shadow 06:26:28 14° 85° (E) 2,153 11.1 -38.1°
